Regional Weather Roundup
Issued by NWS

Home | Current Version | Previous Version | Graphics & Text | Print | Product List | Glossary On
Versions: 1 2 3 4 5 6 7 8 9 10 11 12 13 14 15 16 17 18 19 20 21 22 23 24 25 26 27
000
ASUS45 KBOI 220210
RWRID

IDAHO REGIONAL WEATHER ROUNDUP
NATIONAL WEATHER SERVICE BOISE ID
800 PM MDT SUN MAY 21 2017

NOTE: "FAIR" INDICATES FEW OR NO CLOUDS BELOW 12000 FEET
WITH NO SIGNIFICANT WEATHER AND/OR OBSTRUCTIONS TO VISIBILITY

IDZ012-014-220300-
SOUTHWEST IDAHO


CITY           SKY/WX    TMP DP  RH WIND       PRES   REMARKS
BOISE          SUNNY     73  46  38 NW12      30.14S
CALDWELL       SUNNY     71  50  47 W8        30.15S
MOUNTAIN HOME  SUNNY     74  42  31 SW8       30.14S
$$

IDZ016-017-220300-
SOUTHCENTRAL IDAHO


CITY           SKY/WX    TMP DP  RH WIND       PRES   REMARKS
BURLEY         CLEAR     66  45  46 W5        30.17S
JEROME         PTCLDY    67  44  43 W6        30.19S
TWIN FALLS     CLEAR     67  44  43 CALM      30.19S
$$

IDZ019>023-220300-
SOUTHEAST IDAHO


CITY           SKY/WX    TMP DP  RH WIND       PRES   REMARKS
IDAHO FALLS    PTCLDY    66  36  32 N5        30.19S
POCATELLO      PTCLDY    67  34  29 NE6       30.18S
REXBURG        CLEAR     65  27  23 N7        30.19S
$$

IDZ006-010-011-018-031-032-220300-
CENTRAL IDAHO MOUNTAINS


CITY           SKY/WX    TMP DP  RH WIND       PRES   REMARKS
MCCALL         SUNNY     67  32  27 N7        30.22S
STANLEY          N/A     63  26  24 NW8       30.27S
SALMON         CLEAR     66  45  45 W3        30.15R
CHALLIS        CLEAR     67  35  30 N7        30.19S
$$

IDZ002-004-006-007-026-220300-
NORTHERN IDAHO


CITY           SKY/WX    TMP DP  RH WIND       PRES   REMARKS
LEWISTON       SUNNY     78  49  35 W6        30.13F
LOWELL           N/A     64  49  57 CALM      30.12S
COEUR D`ALENE  SUNNY     73  47  39 SW8       30.16F
MULLAN PASS    SUNNY     56  34  43 VRB7      30.29F
$$




USA.gov is the U.S. government's official web portal to all federal, state and local government web resources and services.